This is the latest recevied weather packets stored in our database for station/object VK5KX. If no packets are shown the sender has not sent any weather packets the latest 10 day(s).
| Time | Temp. | Humidity | Pressure | Rain* | Wind** | Luminosity | Snow |
|---|---|---|---|---|---|---|---|
| 1777887019 | 16.11° C | 74% | 1018.2 hPa | 0 mm | - | - | - |
| 1777886118 | 16.11° C | 73% | 1017.9 hPa | 0 mm | - | - | - |
| 1777885217 | 16.11° C | 73% | 1017.7 hPa | 0 mm | - | - | - |
| 1777884315 | 16.67° C | 73% | 1017.4 hPa | 0 mm | - | - | - |
| 1777883412 | 16.67° C | 73% | 1017.2 hPa | 0 mm | - | - | - |
| 1777882510 | 17.22° C | 72% | 1017.1 hPa | 0 mm | - | - | - |
| 1777881609 | 17.22° C | 71% | 1016.9 hPa | 0 mm | - | - | - |
| 1777880708 | 17.78° C | 71% | 1016.7 hPa | 0 mm | - | - | - |
| 1777879816 | 17.78° C | 70% | 1016.7 hPa | 0 mm | - | - | - |
| 1777878906 | 17.78° C | 71% | 1016.5 hPa | 0 mm | - | - | - |
| 1777878007 | 17.78° C | 70% | 1016.5 hPa | 0 mm | - | - | - |
| 1777877105 | 18.33° C | 68% | 1016.3 hPa | 0 mm | - | - | - |
| 1777876201 | 18.33° C | 67% | 1016.3 hPa | 0 mm | - | - | - |
| 1777875360 | 18.89° C | 66% | 1016.1 hPa | 0 mm | - | - | - |
| 1777874462 | 18.89° C | 65% | 1016 hPa | 0 mm | - | - | - |
| 1777873556 | 18.89° C | 62% | 1015.8 hPa | 0 mm | - | - | - |
| 1777872654 | 19.44° C | 60% | 1015.6 hPa | 0 mm | - | - | - |
| 1777871751 | 20° C | 61% | 1015.5 hPa | 0 mm | - | - | - |
| 1777870851 | 20° C | 62% | 1015.3 hPa | 0 mm | - | - | - |
| 1777869956 | 19.44° C | 65% | 1015.2 hPa | 0 mm | - | - | - |
| 1777869050 | 19.44° C | 65% | 1015 hPa | 0 mm | - | - | - |
| 1777868146 | 18.89° C | 65% | 1014.9 hPa | 0 mm | - | - | - |
| 1777867261 | 18.89° C | 67% | 1015 hPa | 0 mm | - | - | - |
| 1777866368 | 19.44° C | 67% | 1015 hPa | 0 mm | - | - | - |
| 1777865440 | 18.89° C | 67% | 1015 hPa | 0 mm | - | - | - |
* Rain latest hour (hover to see other rain measurements)
** Current wind speed in m/s (hover to see current wind gust speed)